Аэропорт
Пермь (USPP)

 USPP / PEE
ЗЦ Екатеринбург
Екатеринбург (USSS)
Пермь (USPP)
 57.91450, 56.02120  / 404 ft

 USPP 250830Z 19005MPS 9999 BKN028 01/M04 Q1005 R21/150055 TEMPO 2000 SN OVC011 RMK QFE743
 TAF USPP 250758Z 2509/2609 19007G16MPS 9999 -SN DRSN BKN016 BECMG 2511/2512 15007G18MPS 6000 -SN DRSN
USPP_j_0220
показать схемы
Название сценария Тип сценария Flight Simulator 9 Flight Simulator X Prepar3D v2 Prepar3D v3 Prepar3D v4 xPlane
Perm USPP (P3Dv4.4+) бесплатный
USPP Perm FS2004 бесплатный
USPP Perm FSX-P3D бесплатный
USPP Perm X-Plane бесплатный

Пермь (Большое Савино) (IATA: PEE, ICAO: USPP) - международный аэропорт федерального значения города Перми. Был открыт в 1965 году. Расположен в 17,6 км к юго-западу от центра города на территории Соколовского сельского поселения Пермского муниципального района, вблизи деревни Савино. Является единственным в Пермском крае аэропортом, который обслуживает регулярные пассажирские перевозки.

 

Информация о ВПП:

ВПП Размеры, м Hпор, м МПУ взлета/посадки Освещение ВПП ДПРМ БПРМ ILS
03 3204×49 117 031° ОВИ-1 707 (BK) 345 (K) --
21 3204×49 119,8 211° ОВИ-1 707 (PX) 345 (X) 109.900 (IPX)

 

Средства связи ОВД:

USPP_APP - Пермь-Подход - 127.100

USPP_TWR - Пермь-Старт - 124.000*

USPP_ATIS - Пермь-АТИС - 126.400

* - дополнительно выполняет функции Посадки и Руления

 

Диапазон кодов ответчика: 5610-5617

 



2020 © VATRUS division (Privacy Policy)